Home > Weather > Norderstedt > Past weeks

Flag for Germany Weather for the Past 2 Weeks in Norderstedt, Schleswig-Holstein, Germany

Now
45 °F

Light rain. More clouds than sun.


Feels Like: 43 °F
Forecast: 40 / 55 °F
Wind: 3 mph from Northwest

Location: Hamburg-Fuhlsbuettel

Current Time: Apr 30, 2016 at 3:47:55 PM

Latest Report: Apr 30, 2016 at 3:20 PM


Visibility: N/A

Pressure: 30.09 "Hg

Humidity: 93%

Dew Point: 43 °F

Location of NorderstedtLocation

Historic Weather in Norderstedt — Graph

°F

Norderstedt Temperature Yesterday

Maximum temperature yesterday: 54 °F (at 11:50 AM)
Minimum temperature yesterday: 36 °F (at 1:50 AM)
Average temperature yesterday: 45 °F

High & Low Weather Summary for the Past Weeks

 TemperatureHumidityPressure
High57 °F (Apr 16, 2:20 PM)100% (Apr 15, 11:50 PM)30.42 "Hg (Apr 15, 11:50 PM)
Low32 °F (Apr 21, 4:20 AM)41% (Apr 29, 2:50 PM)29.39 "Hg (Apr 26, 3:20 AM)
Average43 °F79%29.87 "Hg
* Reported Apr 15 2:20 PM — Apr 30 2:20 PM, Norderstedt, Weather by CustomWeather, © 2016

Note: Actual official high and low records may vary slightly from our data, if they occured in-between our weather recording intervals... More about our weather records

Advertising

Norderstedt Weather History for the Previous 24 Hours

Scroll right to see more
 ConditionsComfort  
Time TempWeatherWind HumidityBarometerVisibility
2:20 PM
Sat, Apr 30
45 °FRain. Low clouds.9 mph93%30.09 "Hg6 mi
1:50 PM45 °FRain. Low clouds.6 mph87%30.09 "Hg6 mi
1:20 PM45 °FLight rain. Low clouds.7 mph87%30.09 "HgN/A
12:50 PM45 °FLight rain. Partly sunny.7 mph87%30.09 "HgN/A
12:20 PM45 °FLight rain. Partly sunny.7 mph87%30.07 "HgN/A
11:50 AM45 °FLight rain. Partly sunny.7 mph87%30.07 "HgN/A
11:20 AM45 °FLight rain. Partly sunny.9 mph87%30.07 "HgN/A
10:20 AM48 °FLight rain. Broken clouds.6 mph82%30.04 "Hg6 mi
9:50 AM48 °FPartly sunny.6 mph87%30.04 "Hg6 mi
9:20 AM46 °FLight rain. Partly sunny.3 mph93%30.04 "Hg5 mi
8:50 AM45 °FLight rain. Partly sunny.5 mph93%30.04 "Hg5 mi
8:20 AM45 °FLight rain. Broken clouds.5 mph93%30.04 "Hg5 mi
7:50 AM45 °FLight rain. Broken clouds.3 mph87%30.04 "Hg5 mi
7:20 AM43 °FClear.5 mph93%30.01 "Hg5 mi
6:50 AM43 °FClear.2 mph93%30.01 "Hg6 mi
6:20 AM41 °FClear.5 mph93%30.01 "Hg10 mi
5:50 AM41 °FClear.1 mph93%30.01 "Hg10 mi
5:20 AM41 °FClear.1 mph93%30.01 "Hg10 mi
4:50 AM41 °FClear.3 mph93%30.01 "Hg10 mi
4:20 AM41 °FClear.6 mph93%30.01 "Hg10 mi
3:50 AM43 °FClear.7 mph87%30.01 "Hg10 mi
3:20 AM41 °FClear.7 mph93%30.01 "Hg10 mi
2:50 AM43 °FClear.8 mph87%30.01 "Hg10 mi
1:50 AM45 °FClear.6 mph87%30.01 "Hg10 mi
1:20 AM45 °FClear.6 mph87%30.01 "Hg10 mi
12:50 AM45 °FClear.5 mph87%30.01 "Hg10 mi
12:20 AM45 °FClear.3 mph87%30.01 "Hg10 mi
11:50 PM
Fri, Apr 29
45 °FClear.5 mph87%30.01 "Hg10 mi
11:20 PM45 °FPassing clouds.3 mph81%30.01 "HgN/A
10:50 PM45 °FPassing clouds.3 mph87%30.01 "HgN/A
10:20 PM45 °FClear.6 mph87%30.01 "Hg10 mi
9:50 PM45 °FClear.1 mph87%30.01 "Hg10 mi
9:20 PM45 °FSunny.2 mph81%30.01 "Hg10 mi
8:50 PM46 °FPassing clouds.3 mph76%30.01 "HgN/A
8:20 PM46 °FPartly sunny.7 mph82%30.01 "HgN/A
7:50 PM46 °FPartly sunny.3 mph82%30.01 "HgN/A
7:20 PM46 °FBroken clouds.6 mph87%29.98 "HgN/A
6:50 PM46 °FPartly sunny.9 mph87%29.98 "HgN/A
6:20 PM48 °FSprinkles. Partly sunny.9 mph82%29.98 "HgN/A
5:50 PM48 °FSprinkles. Scattered clouds.13 mph82%29.98 "HgN/A
5:20 PM52 °FLight rain. Overcast.14 mph62%29.95 "HgN/A
4:50 PM52 °FLight rain. Overcast.17 mph62%29.95 "HgN/A
4:20 PM52 °FLight rain. More clouds than sun.22 mph62%29.95 "HgN/A
3:50 PM54 °FSunny.23 mph47%29.92 "Hg10 mi
3:20 PM54 °FSunny.28 mph47%29.92 "Hg10 mi
Weather by CustomWeather, © 2016

See weather overviewHow to use our weather pages